Dewpoint
57 57 57 57 56 56 56 56 56 54 53 53 53 53 53 53 53 53 52 51 51 50 50 49 49 49 48 49 48 47 46 46 47 47 48 47 47 48 48 49 48 47 49 48 48 48 48 48 49 51 52 52 51 50 51 51 48 45 44 42 39 38 36 37 35 36 37 41 39 36 38 41 39 38 38 36 35 41 48 45 47 46 44 42 42
57 57 56 56 56 56 56 57 57 55 53 53 53 53 53 53 53 52 50 50 50 49 49 49 49 48 48 48 47 47 46 46 46 47 47 47 47 48 48 48 48 47 47 48 47 48 47 47 47 48 49 49 48 48 49 49 49 46 44 42 39 38 38 38 37 36 35 38 36 39 37 38 37 33 36 34 36 40 38 40 46 45 43 41 41
58 57 56 56 56 57 57 56 57 55 53 53 53 52 52 52 52 51 50 50 49 49 49 48 48 47 47 47 48 46 46 46 46 46 46 46 46 46 48 47 47 47 47 47 47 46 46 47 46 47 47 47 47 46 47 47 47 46 44 41 38 37 36 37 37 35 35 36 38 36 37 37 36 31 32 38 40 39 36 38 43 44 43 42 42
57 57 57 56 56 57 56 57 57 56 54 55 54 53 52 52 52 51 50 49 49 49 48 48 47 46 46 46 46 46 46 47 46 46 46 46 46 47 47 47 47 47 47 47 46 46 46 46 45 46 46 45 45 45 45 45 46 45 43 41 39 37 37 37 36 37 37 35 38 34 37 37 36 37 37 42 41 41 41 42 41 41 42 43 43
57 57 57 56 56 56 56 56 56 56 56 56 55 53 53 52 52 51 49 49 49 49 49 48 47 46 46 46 46 46 47 47 46 45 46 46 46 46 47 47 46 47 47 47 51 45 45 45 46 45 45 45 44 45 45 44 44 44 42 40 38 38 41 38 37 38 36 34 36 39 39 38 40 40 39 40 41 42 43 43 43 42 41 42 41
57 57 56 56 55 55 55 56 56 56 55 55 54 53 52 52 52 50 50 49 49 49 48 47 48 46 46 46 46 46 47 47 46 46 47 47 46 46 47 47 47 47 47 47 47 46 46 45 46 46 45 45 45 45 45 44 44 44 42 41 39 41 40 40 40 39 36 35 37 38 40 40 40 41 39 41 42 41 41 40 41 42 41 40 41
57 56 56 55 55 56 56 56 56 56 55 55 55 54 53 53 52 51 50 50 50 50 49 48 49 47 46 46 46 46 47 47 46 47 47 46 46 46 46 46 46 46 46 47 47 46 46 47 46 46 46 45 46 46 45 45 45 44 44 43 43 42 41 41 41 38 37 37 38 38 39 42 41 39 41 42 42 41 40 39 39 40 41 40 40
55 55 55 55 55 54 55 56 56 56 56 56 56 56 56 55 54 52 51 49 49 50 49 48 48 48 46 46 46 47 47 46 46 46 47 46 46 46 46 46 46 46 46 46 47 46 46 47 47 47 47 47 47 47 46 46 45 44 44 45 45 43 42 43 42 39 38 38 38 38 40 40 40 41 42 40 40 40 41 39 38 38 39 39 38
56 56 55 55 55 55 55 56 56 56 56 56 56 56 56 56 56 55 52 51 52 50 48 48 48 48 47 46 46 47 48 48 47 47 47 46 46 46 46 47 47 46 46 46 46 46 46 46 46 46 49 52 51 49 48 48 46 45 44 46 45 43 43 44 43 41 40 39 38 41 40 40 39 40 39 39 39 40 40 39 38 39 39 39 39
55 56 56 56 55 55 55 55 55 55 55 55 55 55 55 55 55 54 54 54 53 51 49 50 48 48 47 46 46 47 47 48 50 48 48 48 46 47 46 46 46 46 46 45 45 46 46 46 48 55 53 52 49 46 45 46 47 46 47 46 46 44 44 44 43 42 41 40 39 41 40 40 39 40 39 39 40 40 39 38 37 37 36 36 36
53 55 55 55 55 55 55 54 53 53 55 54 54 54 55 55 54 53 54 54 54 53 51 49 49 48 47 47 46 47 47 48 45 43 42 45 47 47 47 46 46 46 45 45 45 46 46 47 46 51 53 52 48 46 45 45 45 45 46 46 47 45 44 44 44 43 42 41 41 41 41 41 41 40 40 41 39 39 38 38 38 36 34 32 30
36 36 38 41 46 51 53 54 54 54 54 54 53 53 54 53 53 53 53 53 53 54 53 51 51 50 49 48 47 47 47 47 44 43 42 41 44 47 47 47 47 47 46 46 46 46 47 47 47 49 49 48 47 45 44 44 43 43 44 44 44 44 44 45 45 43 43 42 41 42 42 41 41 41 41 40 40 39 38 37 36 35 33 32 32
35 36 36 36 37 38 39 40 41 43 46 49 51 53 53 52 52 52 52 52 52 53 53 53 52 50 49 49 48 48 48 47 42 40 41 41 41 43 46 46 47 47 48 47 47 48 47 48 48 47 50 53 51 46 44 43 40 40 41 42 42 42 42 43 44 45 44 43 42 42 42 42 42 42 42 40 39 37 37 35 34 34 33 31 33
35 35 36 36 37 37 38 38 38 38 40 40 40 41 43 45 48 51 51 51 51 52 52 53 53 52 50 49 48 48 48 47 42 41 41 41 40 42 46 46 46 46 47 48 48 48 49 49 49 49 49 50 49 46 45 43 41 41 41 41 40 39 40 41 41 42 44 45 43 42 44 44 42 42 43 40 38 36 34 34 35 32 31 31 33
36 36 36 37 37 37 37 37 38 37 37 37 37 38 39 40 40 44 46 47 48 49 50 50 51 51 51 50 49 49 50 47 42 40 40 40 40 41 47 48 48 49 49 49 49 49 49 50 50 49 49 50 50 47 46 44 42 42 41 41 39 41 41 42 43 45 46 46 45 46 45 45 43 43 43 40 39 37 35 34 33 32 34 35 34
36 36 36 37 37 37 37 37 37 37 37 37 37 37 37 37 38 40 41 41 41 43 44 45 46 48 49 50 49 50 51 46 43 40 39 40 40 45 47 48 49 50 50 50 51 51 50 50 50 49 49 49 48 44 44 45 44 43 43 41 39 38 38 39 38 38 43 45 46 47 46 45 43 44 42 39 37 36 36 35 34 34 34 33 32
36 36 37 37 37 37 37 37 37 37 37 36 36 36 36 37 37 39 37 37 37 39 40 42 44 45 46 47 48 49 51 48 44 41 41 40 42 47 47 47 48 48 50 51 51 51 51 51 51 51 50 51 48 44 42 44 45 44 44 42 41 38 37 38 38 38 39 39 41 40 39 39 39 39 38 37 37 35 34 33 33 33 33 31 32
38 37 37 37 37 37 37 37 36 36 36 36 36 36 36 36 36 38 36 36 36 37 39 39 40 42 42 44 46 48 49 48 45 45 43 41 43 48 48 48 48 49 50 51 50 51 52 52 53 51 51 51 46 43 42 45 47 46 44 44 41 39 37 38 39 38 38 37 37 37 36 37 37 37 36 36 36 37 32 32 33 33 32 32 30
40 40 38 38 38 38 37 37 36 36 36 36 37 36 37 37 37 37 36 36 36 36 38 36 37 38 39 42 45 45 46 46 44 43 43 43 44 47 49 49 48 48 49 50 49 49 51 51 51 51 51 49 45 43 41 45 48 46 47 45 44 42 40 38 38 37 37 36 35 36 36 38 38 37 38 37 37 38 35 34 35 34 34 32 32
38 38 38 38 39 40 40 38 37 37 36 36 36 37 37 36 36 36 36 36 35 36 35 35 35 36 37 38 41 42 44 45 44 41 41 41 42 47 49 49 48 48 48 49 50 48 49 50 49 45 44 44 43 43 42 42 47 46 47 47 45 43 43 39 39 39 39 40 38 36 34 35 37 37 37 38 40 40 36 36 35 35 34 33 33
36 36 36 36 37 37 37 37 38 39 38 38 37 36 36 36 36 36 36 36 35 35 35 35 35 35 35 37 39 40 42 43 42 40 39 39 40 42 48 49 50 50 49 48 49 49 49 49 50 47 44 43 43 42 42 41 43 48 48 48 46 44 40 40 40 40 41 39 37 37 35 35 35 33 35 37 38 38 38 37 36 35 34 32 31
36 36 36 36 37 36 36 37 37 37 37 36 35 35 36 36 36 36 35 35 34 34 34 35 34 34 34 35 37 38 40 41 42 40 39 39 39 41 45 48 49 50 49 49 49 48 49 50 50 47 44 43 42 42 42 42 42 44 48 44 42 37 41 41 40 40 40 38 38 35 35 35 34 34 34 36 38 39 36 35 34 33 32 32 31
36 36 36 36 37 36 36 36 36 37 36 36 35 35 35 35 35 35 35 34 34 34 34 34 34 34 34 34 35 36 37 39 39 39 38 38 39 40 40 43 43 48 50 50 50 49 50 49 49 47 44 43 42 42 41 42 42 43 42 42 39 37 39 41 40 40 39 39 38 37 37 37 36 36 35 35 35 36 36 35 34 35 34 34 32
35 36 36 36 36 37 36 37 36 35 36 36 36 35 34 35 35 35 35 34 34 34 33 34 34 33 33 33 34 35 35 38 38 38 39 38 39 39 39 39 39 46 49 50 51 50 49 48 48 45 44 43 42 41 40 40 43 41 40 40 39 38 43 41 41 41 38 38 38 37 37 38 38 38 36 35 35 34 34 33 33 33 33 33 32
35 35 35 35 36 36 35 35 34 34 35 35 35 34 34 34 34 34 34 34 33 33 33 33 33 33 33 33 33 34 35 36 37 38 38 38 39 39 39 39 39 38 43 47 48 49 46 44 43 43 42 42 40 39 39 39 39 40 40 39 40 43 43 42 41 39 38 37 38 38 36 36 37 36 35 34 33 33 32 32 31 30 30 31 30
35 35 35 34 34 34 34 34 34 34 34 34 34 34 34 34 34 33 33 32 32 33 32 33 33 33 32 32 33 34 35 36 37 37 38 39 39 39 39 39 39 39 40 43 42 41 39 40 42 41 40 39 38 40 41 41 39 39 38 39 43 43 42 41 40 40 39 38 37 37 36 35 35 33 33 32 31 31 31 31 30 29 30 30 30
35 34 34 34 34 34 34 34 34 33 33 33 33 34 34 33 34 33 33 33 33 33 33 33 33 33 33 33 33 34 34 35 36 36 37 37 38 38 39 40 40 38 39 40 40 42 41 39 39 38 38 37 37 37 37 37 39 40 40 41 42 42 43 41 40 39 38 37 36 36 34 33 32 31 30 30 30 30 31 31 30 29 30 28 29
33 33 33 33 34 34 34 32 34 33 33 33 33 34 33 34 33 33 33 33 33 33 33 33 33 33 33 33 33 34 34 35 35 35 36 36 36 36 38 39 39 39 41 42 42 40 38 35 36 37 35 35 35 34 36 37 38 38 39 39 39 39 38 37 37 38 38 37 35 34 32 31 30 30 30 30 30 30 30 31 30 29 29 28 26
32 31 32 32 33 33 34 32 33 33 33 33 33 33 33 34 34 34 33 33 33 33 34 34 34 33 33 33 33 33 33 33 34 35 35 34 34 35 36 38 39 39 40 40 38 37 37 36 34 35 34 32 31 32 34 36 35 36 38 38 38 38 38 38 37 37 36 35 33 33 31 30 30 30 30 30 30 30 29 30 30 29 28 28 28
31 31 31 32 32 32 33 33 33 33 34 33 34 34 33 35 35 34 34 35 35 35 34 33 34 34 34 34 33 34 33 34 35 35 34 34 34 34 35 36 36 37 38 38 37 35 33 33 33 34 33 32 32 33 33 34 34 34 35 35 37 38 37 37 36 36 33 33 32 31 31 30 29 29 29 29 29 29 30 31 28 28 27 27 28
32 31 32 32 32 33 32 33 34 34 34 34 34 33 33 34 34 35 35 35 35 35 34 34 34 34 35 34 34 34 34 34 34 34 34 34 34 35 35 36 36 36 37 35 34 35 35 34 34 33 33 33 32 33 33 32 32 33 33 34 35 35 34 35 35 32 31 31 31 30 30 30 29 29 29 29 29 29 28 28 29 29 29 28 27
30 30 30 31 32 31 32 32 33 34 34 33 33 32 31 31 33 34 35 35 35 35 35 34 34 34 34 34 34 33 33 33 34 34 34 34 34 35 35 36 36 36 36 37 36 35 35 35 34 33 32 32 32 32 33 33 32 33 33 32 32 32 33 32 33 32 30 30 30 29 30 29 29 29 29 29 28 28 28 26 27 28 27 26 27
30 31 31 31 33 33 33 33 33 33 33 33 33 33 32 32 32 33 34 35 35 35 34 34 34 34 34 34 34 34 34 34 34 34 34 35 35 35 36 36 36 36 35 36 37 36 34 34 34 33 32 32 32 33 33 33 33 32 31 31 30 30 31 32 31 31 30 30 30 29 29 29 28 28 27 27 27 25 26 27 28 27 26 26 24
31 31 32 33 33 33 32 33 33 33 33 34 34 33 33 33 33 34 33 33 33 33 34 34 34 34 34 34 34 34 34 34 34 34 34 35 35 35 36 33 35 35 36 36 35 35 33 33 32 32 32 32 34 33 33 33 33 32 32 33 32 32 32 31 30 30 29 30 30 29 29 28 28 27 26 25 25 27 27 25 26 24 23 24 24
32 33 33 33 31 31 31 31 31 32 33 33 33 33 33 33 33 33 33 33 33 33 33 33 34 34 34 33 34 34 34 34 34 34 35 35 35 35 34 31 31 32 33 33 34 34 33 32 32 32 33 34 34 33 33 35 33 32 31 31 32 32 31 30 29 29 29 29 29 28 27 27 27 27 27 27 27 27 25 24 23 24 24 24 24
31 31 32 32 32 33 33 34 33 32 32 33 33 32 32 31 32 33 33 33 33 33 33 34 34 34 34 34 34 34 34 34 34 35 34 35 35 34 32 31 32 34 34 34 35 35 35 35 35 35 35 35 34 34 34 33 33 34 34 32 30 30 30 30 29 29 29 29 28 28 27 26 26 25 26 27 27 26 23 23 22 23 22 23 22
30 30 31 31 33 34 34 34 33 33 32 31 31 31 30 30 31 31 31 33 33 33 34 34 34 34 35 34 35 35 34 34 34 34 34 34 34 33 33 34 34 35 35 36 36 36 36 36 36 36 36 35 35 35 34 34 34 33 32 32 32 31 30 30 29 29 29 28 28 28 27 26 27 28 28 26 23 23 22 21 22 24 24 25 28
31 30 30 31 33 34 33 33 32 32 31 30 30 29 29 30 30 30 31 33 33 33 34 34 34 34 34 34 36 34 33 34 33 33 32 33 33 33 33 32 33 34 34 35 35 35 36 36 37 37 36 36 35 35 34 34 33 31 31 31 31 30 31 30 30 30 29 28 28 27 27 26 25 26 27 27 25 23 22 22 21 22 25 28 27
29 29 30 31 32 33 32 30 31 31 31 30 30 29 29 29 29 31 32 33 33 33 33 33 34 34 34 33 32 33 33 32 32 30 30 31 32 33 33 33 33 33 33 34 34 34 35 35 35 36 36 35 35 35 34 32 33 31 31 30 30 30 30 29 29 29 28 28 27 27 26 25 23 23 25 26 23 23 23 24 22 23 24 26 26
30 30 31 32 32 32 31 31 30 30 30 30 30 29 29 29 29 29 30 31 31 31 31 31 32 32 32 31 32 31 31 32 32 32 31 31 31 32 32 32 32 32 33 34 35 35 35 35 35 35 35 35 35 35 34 32 31 31 30 30 30 30 30 29 29 28 27 27 27 26 26 24 22 22 22 23 23 22 21 22 24 26 26 27 29
30 29 30 30 31 31 31 31 30 31 30 29 28 29 28 29 29 28 29 29 30 30 30 30 30 31 31 32 33 32 30 32 33 33 32 32 32 31 32 32 32 33 33 34 35 36 36 35 34 33 33 33 34 34 33 31 30 30 30 30 30 30 30 29 28 27 28 27 27 25 23 23 24 26 24 22 27 23 23 24 26 27 29 30 30
29 29 29 29 29 29 30 31 32 32 31 30 29 29 28 29 28 28 28 28 29 29 29 29 30 30 31 32 32 33 31 31 32 33 33 33 33 32 32 33 34 33 33 33 34 34 34 34 33 32 32 32 32 31 31 30 30 30 30 30 30 29 29 28 28 28 28 27 26 25 25 25 25 25 25 29 21 20 22 24 25 26 27 28 29
29 29 28 28 29 29 29 30 31 30 29 29 29 29 29 27 28 28 27 27 28 28 28 28 29 29 30 31 31 31 31 31 32 33 33 33 32 30 30 31 31 32 32 32 33 34 33 32 32 31 31 31 31 31 30 30 30 30 30 30 30 29 28 28 28 27 27 27 26 26 26 26 25 23 22 22 20 23 23 24 26 27 28 29 30
30 28 28 28 28 28 28 28 29 29 29 29 29 28 29 29 29 28 27 28 28 27 27 28 28 29 30 31 32 31 31 30 30 31 31 31 31 30 30 30 30 31 31 31 31 32 31 31 31 31 32 31 32 32 31 31 31 30 30 29 28 28 28 28 27 27 27 27 26 26 24 23 23 22 24 24 21 23 24 25 26 27 28 28 29
30 28 28 28 27 28 28 28 28 28 29 28 28 28 28 29 29 29 29 29 29 29 28 27 27 29 30 31 32 31 30 30 30 31 31 31 31 31 30 30 30 30 30 30 31 31 30 30 30 30 30 30 31 31 30 30 30 30 29 29 28 28 27 27 25 24 26 27 26 25 24 24 22 22 22 22 24 23 25 26 26 29 28 28 28
28 28 28 28 28 28 28 28 29 28 29 28 28 29 29 29 30 31 31 31 31 30 28 29 29 30 31 31 32 32 31 31 30 31 31 31 31 31 30 31 31 31 30 29 29 30 30 30 29 29 29 28 28 28 28 27 27 27 27 27 27 25 23 22 21 23 24 25 25 24 24 23 22 23 25 22 23 23 24 26 27 28 28 29 29
29 28 27 28 27 28 28 30 31 30 29 28 28 28 28 28 29 30 31 32 31 30 29 28 29 31 32 32 32 32 32 31 31 30 31 31 32 32 31 31 31 30 30 30 30 29 29 28 28 28 27 27 27 26 26 26 26 26 26 26 25 25 23 22 23 23 23 22 23 25 24 24 23 22 23 23 24 24 26 26 27 28 29 30 28
29 28 28 28 27 27 28 30 31 31 29 29 29 29 29 29 30 31 31 31 29 28 28 29 29 31 32 32 32 32 32 32 32 32 32 31 31 31 32 31 31 31 30 30 30 30 29 29 28 27 27 26 25 25 25 25 25 25 25 25 24 24 24 24 23 23 22 22 22 23 24 24 22 22 23 23 23 24 25 25 28 29 28 27 28
28 28 28 28 28 28 29 30 31 31 31 31 31 30 30 31 32 33 32 31 30 29 29 30 31 32 32 32 32 32 32 32 32 32 32 31 30 30 31 31 31 30 30 29 29 29 28 28 27 26 25 25 25 24 24 24 24 23 24 24 24 24 24 24 24 24 22 20 20 21 22 22 23 23 23 23 23 24 25 26 26 28 27 27 28
28 28 28 28 28 28 29 30 31 31 32 32 31 31 31 32 32 32 31 29 28 30 30 31 31 31 31 32 32 33 32 32 32 32 32 32 31 31 30 30 29 29 29 28 28 27 26 25 25 24 23 23 23 23 23 23 23 23 23 23 23 23 24 24 25 25 25 24 23 22 21 20 20 20 21 20 19 20 22 25 26 27 26 27 29
29 29 28 28 28 27 28 28 28 29 30 30 31 31 31 31 30 30 29 28 29 29 29 30 31 32 32 32 32 32 32 32 32 32 32 32 31 31 30 29 29 28 27 26 26 25 25 24 24 23 23 23 22 22 22 23 23 23 24 24 24 24 24 24 25 25 25 25 24 23 23 23 24 24 22 21 20 21 25 25 25 25 25 26 28